OBJECT AA, 47437

Orbit data source: Space-Track

You're viewing an Uncataloged Satellite

Recently launched and/or uncataloged satellites may have evolving metadata. Metadata may include but not limited to: Owner, Maufacturer, Bus, Motor, and Mission.

OBJECT AA, 47437 is a satellite in SSO that was launched on Sun, 24 Jan 2021 UTC launched from the Air Force Eastern Test Range (AFETR). Unknown objects in Earth's orbit typically refer to objects detected orbiting the Earth but have not yet been identified or cataloged. These objects could be anything from previously untracked satellites, spent rocket stages, debris from satellite collisions, or even natural meteoroids temporarily captured by Earth's gravity.

Loading next visibility...
Identifier
47437, 2021-006AA
Orbit
SSO
Country
Flag of TBDTBD
Related business
Manufacturer
SpaceX/Seattle
Mission
Spacecraft
Bus & Motor
Unknown
Mass
~100 kg wet, ~100 kg dry
Launch date (UTC)
2021-01-24 (5 years ago)
Launch vehicle
Unknown
Launch site
Air Force Eastern Test Range (AFETR)
Object type
Unknown
Shape & HBR
Cyl, Unknown HBR
Radar Cross Section
0.110 m², Medium (>0.1 m² and < 1m²)

Expand to show TLE details & history
Last TLE update: 10 hours ago

TLE from 10 hours ago
0 OBJECT AA
1 47437U 21006AA  25242.94515154  .00007759  00000-0  29307-3 0  9995
2 47437  97.2691 286.3593 0010513 147.9510 212.2371 15.27217936254961
Epoch: 2025-08-30T22:41Z
TLE epoch observation values (Epoch: 2025-08-30T22:41:01.093Z)
Latitude
0.00004°
Longitude
-33.26743°
Altitude
493.343 km
Speed
7.615 km/s
True Right ascension
19h 05m 26s
True Declination
0° 00' 00"
Sunlit
Object was in full shadow at epoch
Visualization orbit readout
Latitude
Unknown
Longitude
Unknown
Altitude
Unknown
Speed
Unknown
Apparent Right ascension
Unknown
Apparent Declination
Unknown
Sunlit
N/A
Visualization observer readout
Local Sidereal Time
23:54:50
Azimuth
Unknown
Elevation
Unknown
Doppler factor
Unknown
Orbital elements
Apogee altitude
488.295 km
Perigee altitude
473.873 km
Semi-major axis
6,859.221 km
Eccentricity
0.00105
Inclination
97.2691°
RAAN
286.3593°
Arg. of periapsis
147.951°
True anomaly
212.17291°
Mean anomaly
212.2371°
Eccentric anomaly
212.205°
Mean motion
3.82059 °/min
Orbital period
94.23 mins
BSTAR
0.00029307
Loading maneuver chart data...
Computing Atmospheric mass density...

Documentation

Showing up to 5 results
|